Tillbaka till svenska Fidonet
English   Information   Debug  
FILM   0/18
FNEWS_PUBLISH   4983
FN_SYSOP   42232
FN_SYSOP_OLD1   71952
FTP_FIDO   0/2
FTSC_PUBLIC   0/13976
FUNNY   0/4886
GENEALOGY.EUR   0/71
GET_INFO   105
GOLDED   0/408
HAM   8911/16726
HOLYSMOKE   0/6791
HOT_SITES   0/1
HTMLEDIT   0/71
HUB203   466
HUB_100   264
HUB_400   39
HUMOR   0/29
IC   0/2851
INTERNET   0/424
INTERUSER   0/3
IP_CONNECT   719
JAMNNTPD   0/233
JAMTLAND   0/47
KATTY_KORNER   0/41
LAN   0/16
LINUX-USER   0/19
LINUXHELP   0/1155
LINUX   0/22392
LINUX_BBS   0/957
mail   18.68
mail_fore_ok   249
MENSA   0/341
MODERATOR   0/102
MONTE   0/992
MOSCOW_OKLAHOMA   0/1245
MUFFIN   0/783
MUSIC   0/321
N203_STAT   938
N203_SYSCHAT   313
NET203   321
NET204   69
NET_DEV   0/10
NORD.ADMIN   0/101
NORD.CHAT   0/2572
NORD.FIDONET   189
NORD.HARDWARE   0/28
NORD.KULTUR   0/114
NORD.PROG   0/32
NORD.SOFTWARE   0/88
NORD.TEKNIK   0/58
NORD   0/453
OCCULT_CHAT   0/93
OS2BBS   0/787
OS2DOSBBS   0/580
OS2HW   0/42
OS2INET   0/37
OS2LAN   0/134
OS2PROG   0/36
OS2REXX   0/113
OS2USER-L   207
OS2   0/4831
OSDEBATE   0/18996
PASCAL   0/490
PERL   0/457
PHP   0/45
POINTS   0/405
POLITICS   0/29554
POL_INC   6267/14731
PSION   103
R20_ADMIN   1133
R20_AMATORRADIO   0/2
R20_BEST_OF_FIDONET   16
R20_CHAT   0/897
R20_DEPP   0/3
R20_DEV   400
R20_ECHO2   1891
R20_ECHOPRES   0/35
R20_ESTAT   0/719
R20_FIDONETPROG...
...RAM.MYPOINT
  0/2
R20_FIDONETPROGRAM   0/22
R20_FIDONET   0/248
R20_FILEFIND   0/24
R20_FILEFOUND   0/22
R20_HIFI   0/3
R20_INFO2   3783
R20_INTERNET   0/12940
R20_INTRESSE   0/60
R20_INTR_KOM   0/99
R20_KANDIDAT.CHAT   42
R20_KANDIDAT   28
R20_KOM_DEV   112
R20_KONTROLL   0/13360
R20_KORSET   0/18
R20_LOKALTRAFIK   0/24
R20_MODERATOR   0/1852
R20_NC   76
R20_NET200   245
R20_NETWORK.OTH...
...ERNETS
  0/13
R20_OPERATIVSYS...
...TEM.LINUX
  0/44
R20_PROGRAMVAROR   0/1
R20_REC2NEC   534
R20_SFOSM   0/341
R20_SF   0/108
R20_SPRAK.ENGLISH   0/1
R20_SQUISH   107
R20_TEST   2
R20_WORST_OF_FIDONET   20
RAR   0/9
RA_MULTI   106
RA_UTIL   0/162
REGCON.EUR   0/2069
REGCON   0/13
SCIENCE   0/1206
SF   0/239
SHAREWARE_SUPPORT   0/5146
SHAREWRE   0/14
SIMPSONS   0/169
STATS_OLD1   0/2539.065
STATS_OLD2   0/2530
STATS_OLD3   0/2395.095
STATS_OLD4   0/1692.25
SURVIVOR   0/495
SYSOPS_CORNER   0/3
SYSOP   0/84
TAGLINES   0/112
TEAMOS2   0/4530
TECH   0/2617
TEST.444   0/105
TRAPDOOR   0/19
TREK   0/755
TUB   0/290
UFO   0/40
UNIX   0/1316
USA_EURLINK   0/102
USR_MODEMS   0/1
VATICAN   0/2740
VIETNAM_VETS   0/14
VIRUS   0/378
VIRUS_INFO   0/201
VISUAL_BASIC   0/473
WHITEHOUSE   0/5187
WIN2000   0/101
WIN32   0/30
WIN95   0/4291
WIN95_OLD1   0/70272
WINDOWS   0/1517
WWB_SYSOP   0/419
WWB_TECH   0/810
ZCC-PUBLIC   0/1
ZEC   4

 
4DOS   0/134
ABORTION   0/7
ALASKA_CHAT   0/506
ALLFIX_FILE   0/1313
ALLFIX_FILE_OLD1   0/7997
ALT_DOS   0/152
AMATEUR_RADIO   0/1039
AMIGASALE   0/14
AMIGA   0/331
AMIGA_INT   0/1
AMIGA_PROG   0/20
AMIGA_SYSOP   0/26
ANIME   0/15
ARGUS   0/924
ASCII_ART   0/340
ASIAN_LINK   0/651
ASTRONOMY   0/417
AUDIO   0/92
AUTOMOBILE_RACING   0/105
BABYLON5   0/17862
BAG   135
BATPOWER   0/361
BBBS.ENGLISH   0/382
BBSLAW   0/109
BBS_ADS   0/5290
BBS_INTERNET   0/507
BIBLE   0/3563
BINKD   0/1119
BINKLEY   0/215
BLUEWAVE   0/2173
CABLE_MODEMS   0/25
CBM   0/46
CDRECORD   0/66
CDROM   0/20
CLASSIC_COMPUTER   0/378
COMICS   0/15
CONSPRCY   0/899
COOKING   42028
COOKING_OLD1   0/24719
COOKING_OLD2   0/40862
COOKING_OLD3   0/37489
COOKING_OLD4   0/35496
COOKING_OLD5   9370
C_ECHO   0/189
C_PLUSPLUS   0/31
DIRTY_DOZEN   0/201
DOORGAMES   0/2333
DOS_INTERNET   0/196
duplikat   6102
ECHOLIST   0/18295
EC_SUPPORT   0/318
ELECTRONICS   0/359
ELEKTRONIK.GER   1534
ENET.LINGUISTIC   0/13
ENET.POLITICS   0/4
ENET.SOFT   0/11701
ENET.SYSOP   34336
ENET.TALKS   0/32
ENGLISH_TUTOR   0/2000
EVOLUTION   0/1335
FDECHO   0/217
FDN_ANNOUNCE   0/7068
FIDONEWS   25122
FIDONEWS_OLD1   0/49742
FIDONEWS_OLD2   0/35949
FIDONEWS_OLD3   0/30874
FIDONEWS_OLD4   0/37224
FIDO_SYSOP   12973
FIDO_UTIL   0/180
FILEFIND   0/209
FILEGATE   0/212
Möte HAM, 16726 texter
 lista första sista föregående nästa
Text 2383, 816 rader
Skriven 2008-07-04 02:30:23 av Amsat List (1:323/120.0)
Ärende: [keps]  orb08185.amsa
=============================
[keps]  orb08185.amsa

Return-Path: <keps-bounces@AMSAT.Org>
X-Rcpt: craig.healy@chowda.com
X-UIDL: 1215153109.37424

SB KEPS @ AMSAT  $ORB08185.O
Orbital Elements  08185.OSCAR

HR AMSAT ORBITAL ELEMENTS FOR OSCAR SATELLITES
FROM WA5QGD FORT WORTH,TX July 3, 2008
Send Subscribe/unsubscribe to KEPS at 
http://www.amsat.org/mailman/listinfo/keps
BID: ORB08185.O
TO ALL RADIO AMATEURS BT

Satellite: AO-07
Catalog number: 07530
Epoch time:      08185.65390340
Element set:     217
Inclination:      101.4640 deg
RA of node:       216.5992 deg
Eccentricity:    0.0011663
Arg of perigee:   229.6458 deg
Mean anomaly:     130.3594 deg
Mean motion:   12.53573671 rev/day
Decay rate:       -2.7e-07 rev/day^2
Epoch rev:           53904
Checksum:              294

Satellite: AO-10
Catalog number: 14129
Epoch time:      08183.30936577
Element set:    0525
Inclination:      025.9847 deg
RA of node:       207.7081 deg
Eccentricity:    0.5980188
Arg of perigee:   136.5615 deg
Mean anomaly:     290.3484 deg
Mean motion:   02.05868048 rev/day
Decay rate:       1.47e-06 rev/day^2
Epoch rev:           18839
Checksum:              338

Satellite: UO-11
Catalog number: 14781
Epoch time:      08184.60401147
Element set:    0710
Inclination:      098.1526 deg
RA of node:       218.8674 deg
Eccentricity:    0.0009656
Arg of perigee:   029.8545 deg
Mean anomaly:     330.3223 deg
Mean motion:   14.79652144 rev/day
Decay rate:       2.73e-06 rev/day^2
Epoch rev:           30613
Checksum:              295

Satellite: RS-15
Catalog number: 23439
Epoch time:      08184.97828479
Element set:    0168
Inclination:      064.8155 deg
RA of node:       109.5126 deg
Eccentricity:    0.0147379
Arg of perigee:   119.9169 deg
Mean anomaly:     241.6484 deg
Mean motion:   11.27552338 rev/day
Decay rate:       -3.9e-07 rev/day^2
Epoch rev:           55674
Checksum:              354

Satellite: FO-29
Catalog number: 24278
Epoch time:      08184.87385138
Element set:    0821
Inclination:      098.5865 deg
RA of node:       099.1124 deg
Eccentricity:    0.0350696
Arg of perigee:   174.8452 deg
Mean anomaly:     185.6452 deg
Mean motion:   13.52937609 rev/day
Decay rate:       -4.3e-07 rev/day^2
Epoch rev:           58651
Checksum:              356

Satellite: SO-33
Catalog number: 25509
Epoch time:      08184.49825648
Element set:    0233
Inclination:      031.4301 deg
RA of node:       229.7860 deg
Eccentricity:    0.0354867
Arg of perigee:   161.1729 deg
Mean anomaly:     200.2392 deg
Mean motion:   14.28217975 rev/day
Decay rate:       2.49e-06 rev/day^2
Epoch rev:           50580
Checksum:              315

Satellite: AO-40
Catalog number: 26609
Epoch time:      08185.52866151
Element set:      85
Inclination:      007.6040 deg
RA of node:       074.2959 deg
Eccentricity:    0.7919778
Arg of perigee:   097.6292 deg
Mean anomaly:     347.5908 deg
Mean motion:   01.25582665 rev/day
Decay rate:      -1.99e-06 rev/day^2
Epoch rev:            3524
Checksum:              352

Satellite: VO-52
Catalog number: 28650
Epoch time:      08185.81892915
Element set:     971
Inclination:      097.7904 deg
RA of node:       251.9735 deg
Eccentricity:    0.0028426
Arg of perigee:   086.8609 deg
Mean anomaly:     273.5884 deg
Mean motion:   14.81478603 rev/day
Decay rate:        9.9e-07 rev/day^2
Epoch rev:           17106
Checksum:              360

Satellite: PO-63
Catalog number: 29712
Epoch time:      08185.85367509
Element set:     585
Inclination:      097.8746 deg
RA of node:       243.7273 deg
Eccentricity:    0.0013836
Arg of perigee:   332.8784 deg
Mean anomaly:     027.1702 deg
Mean motion:   14.80200540 rev/day
Decay rate:       3.91e-06 rev/day^2
Epoch rev:            7993
Checksum:              332

/EX
SB KEPS @ AMSAT  $ORB08185.D
Orbital Elements  08185.MICROS

HR AMSAT ORBITAL ELEMENTS FOR THE MICROSATS
FROM WA5QGD FORT WORTH,TX July 3, 2008
Send Subscribe/unsubscribe to KEPS at 
http://www.amsat.org/mailman/listinfo/keps
BID: ORB08185.D
TO ALL RADIO AMATEURS BT

Satellite: AO-16
Catalog number: 20439
Epoch time:      08185.84268931
Element set:     359
Inclination:      098.2300 deg
RA of node:       165.0532 deg
Eccentricity:    0.0011580
Arg of perigee:   123.4387 deg
Mean anomaly:     236.7904 deg
Mean motion:   14.31797435 rev/day
Decay rate:        1.0e-07 rev/day^2
Epoch rev:           96330
Checksum:              300

Satellite: LO-19
Catalog number: 20442
Epoch time:      08183.86097530
Element set:    0286
Inclination:      098.2001 deg
RA of node:       171.6653 deg
Eccentricity:    0.0012599
Arg of perigee:   127.4252 deg
Mean anomaly:     232.8017 deg
Mean motion:   14.32035237 rev/day
Decay rate:       -3.9e-07 rev/day^2
Epoch rev:           96317
Checksum:              297

Satellite: AO-27
Catalog number: 22825
Epoch time:      08185.44240607
Element set:       7
Inclination:      098.3836 deg
RA of node:       144.8546 deg
Eccentricity:    0.0007855
Arg of perigee:   207.9429 deg
Mean anomaly:     152.1308 deg
Mean motion:   14.29243324 rev/day
Decay rate:       2.12e-06 rev/day^2
Epoch rev:           77009
Checksum:              303

Satellite: IO-26
Catalog number: 22826
Epoch time:      08184.79367505
Element set:     712
Inclination:      098.3780 deg
RA of node:       145.1330 deg
Eccentricity:    0.0008346
Arg of perigee:   206.9341 deg
Mean anomaly:     153.1411 deg
Mean motion:   14.29491019 rev/day
Decay rate:       -3.0e-08 rev/day^2
Epoch rev:           77009
Checksum:              294

